This is the latest recevied weather packets stored in our database for station/object KD8OZS. If no packets are shown the sender has not sent any weather packets the latest 10 day(s).
| Time | Temp. | Humidity | Pressure | Rain* | Wind** | Luminosity | Snow |
|---|---|---|---|---|---|---|---|
| 1777818779 | 11.67° C | 54% | 1009.7 hPa | 0 mm | - | 548 W/m² | - |
| 1777818475 | 11.67° C | 54% | 1009.8 hPa | 0 mm | - | 261 W/m² | - |
| 1777818172 | 11.67° C | 54% | 1009.8 hPa | 0 mm | - | 305 W/m² | - |
| 1777817868 | 11.11° C | 58% | 1009.8 hPa | 0 mm | - | 716 W/m² | - |
| 1777817566 | 10.56° C | 55% | 1009.7 hPa | 0 mm | - | 691 W/m² | - |
| 1777817262 | 10.56° C | 56% | 1009.9 hPa | 0 mm | - | 690 W/m² | - |
| 1777816960 | 10° C | 59% | 1009.9 hPa | 0 mm | - | 645 W/m² | - |
| 1777816656 | 10° C | 58% | 1009.9 hPa | 0 mm | - | 672 W/m² | - |
| 1777816353 | 9.44° C | 58% | 1010 hPa | 0 mm | - | 668 W/m² | - |
| 1777816051 | 10° C | 60% | 1010.1 hPa | 0 mm | - | 615 W/m² | - |
| 1777815748 | 8.89° C | 61% | 1010.1 hPa | 0 mm | - | 617 W/m² | - |
| 1777815446 | 8.89° C | 64% | 1010.3 hPa | 0 mm | - | 607 W/m² | - |
| 1777815143 | 7.78° C | 62% | 1010.2 hPa | 0 mm | - | 599 W/m² | - |
| 1777814839 | 7.78° C | 61% | 1010.4 hPa | 0 mm | - | 561 W/m² | - |
| 1777814535 | 8.89° C | 62% | 1010.2 hPa | 0 mm | - | 520 W/m² | - |
| 1777814233 | 8.33° C | 64% | 1010.3 hPa | 0 mm | - | 549 W/m² | - |
| 1777813929 | 7.78° C | 66% | 1010.3 hPa | 0 mm | - | 493 W/m² | - |
| 1777813627 | 8.33° C | 65% | 1010.3 hPa | 0 mm | - | 447 W/m² | - |
| 1777813324 | 8.33° C | 66% | 1010.1 hPa | 0 mm | - | 411 W/m² | - |
| 1777813021 | 8.33° C | 68% | 1010.3 hPa | 0 mm | - | 395 W/m² | - |
| 1777812719 | 7.22° C | 69% | 1010.4 hPa | 0 mm | - | 379 W/m² | - |
| 1777812415 | 7.78° C | 68% | 1010.2 hPa | 0 mm | - | 322 W/m² | - |
| 1777812114 | 7.22° C | 72% | 1010.4 hPa | 0 mm | - | 329 W/m² | - |
| 1777811812 | 6.67° C | 73% | 1010.3 hPa | 0 mm | - | 308 W/m² | - |
| 1777811509 | 5.56° C | 78% | 1010.3 hPa | 0 mm | - | 291 W/m² | - |
* Rain latest hour (hover to see other rain measurements)
** Current wind speed in m/s (hover to see current wind gust speed)